COSMOS 252 DEB, 3814

Orbit data source: Space-Track

COSMOS 252 DEB, 3814 is space debris in LEO originally from a launch on Fri, 01 Nov 1968 UTC launched from the Tyuratam Missile And Space Complex (TTMTR). Debris objects in space refer to the collection of defunct objects orbiting the Earth. Examples of debris include non-operational satellites, rocket bodies, and fragments generated from explosions, collisions, or faulty payload assembly.

Loading next visibility...
Identifier
3814, 1968-097BC
Orbit
LEO
Country
Flag of CISCIS
Related business
Manufacturer
Unknown
Mission
Spacecraft
Bus & Motor
Unknown
Mass
Unknown
Launch date (UTC)
1968-11-01 (57 years ago)
Launch vehicle
Unknown
Launch site
Tyuratam Missile And Space Complex (TTMTR)
Object type
Payload
Rocket body
Debris
Shape & HBR
Unknown shape, 0.1 m
Radar Cross Section
Small (<0.1 m²)

Expand to show TLE details & history
Last TLE update: 16 hours ago

TLE from 16 hours ago
0 COSMOS 252 DEB
1 03814U 68097BC  26107.12789777  .00000495  00000-0  72227-3 0  9991
2 03814  62.2655 103.7788 0769672  15.6904 346.6552 12.79369667646643
Epoch: 2026-04-17T03:04Z
TLE epoch observation values (Epoch: 2026-04-17T03:04:10.367Z)
Latitude
0.00002°
Longitude
-147.52993°
Altitude
770.015 km
Speed
7.743 km/s
True Right ascension
06h 55m 06s
True Declination
0° 00' 00"
Sunlit
Object was in daylight at epoch
Visualization orbit readout
Latitude
Unknown
Longitude
Unknown
Altitude
Unknown
Speed
Unknown
Apparent Right ascension
Unknown
Apparent Declination
Unknown
Sunlit
N/A
Visualization observer readout
Local Sidereal Time
01:45:50
Azimuth
Unknown
Elevation
Unknown
Doppler factor
Unknown
Orbital elements
Apogee altitude
1,937.277 km
Perigee altitude
748.728 km
Semi-major axis
7,721.139 km
Eccentricity
0.07697
Inclination
62.2655°
RAAN
103.7788°
Arg. of periapsis
15.6904°
True anomaly
344.41082°
Mean anomaly
346.6552°
Eccentric anomaly
345.55516°
Mean motion
3.19905 °/min
Orbital period
112.53 mins
BSTAR
0.00072227
Loading maneuver chart data...
Computing Atmospheric mass density...

Documentation

Showing up to 5 results
|